Regional Weather Roundup
Issued by NWS

Home | Current Version | Previous Version | Text Only | Print | Product List | Glossary Off
Versions: 1 2 3 4 5 6 7 8 9 10 11 12 13 14 15 16 17 18 19 20 21 22 23 24 25 26 27

000
ASUS45 KSLC 270610
RWRUT

UTAH REGIONAL WEATHER ROUNDUP
NATIONAL WEATHER SERVICE SALT LAKE CITY UT
1200 AM MDT SAT MAY 27 2017

UTZ001>011-023>025-270700-

NORTHERN UTAH

CITY           SKY/WX    TMP DP  RH WIND       PRES   REMARKS
BRIGHAM CITY   CLEAR     50  36  58 W6        30.08R
HILL AFB       CLEAR     50  36  59 N9        30.06R
LOGAN          CLOUDY    48  39  71 NW7       30.08R
OGDEN          CLEAR     48  37  65 N9        30.05R
SALT LAKE CITY PTCLDY    56  40  55 NW9       30.05R
TOOELE VALLEY  PTCLDY    50  41  71 CALM      30.08R
WENDOVER       CLEAR     55  36  48 N5        30.08R
HEBER CITY     PTCLDY    48  30  49 N3        30.06R
WEST JORDAN    PTCLDY    51  43  74 W7        30.08R

$$

UTZ011>015-024>027-270700-

CENTRAL/NORTHEAST UTAH

CITY           SKY/WX    TMP DP  RH WIND       PRES   REMARKS
PROVO AIRPORT  MOCLDY    57  40  52 NW15      30.06R
MOAB/CANYONLAN PTCLDY    66  30  26 W14       29.88R
DELTA          CLOUDY    55  32  41 N9        30.08R
PRICE          PTCLDY    54  28  36 NW13G22   30.02R
ROOSEVELT      PTCLDY    57  27  30 W13       29.99S
VERNAL         CLOUDY    57  35  43 SE12      29.99R

$$

UTZ013>016-019>022-027-270700-

SOUTHERN UTAH

CITY           SKY/WX    TMP DP  RH WIND       PRES   REMARKS
BRYCE CANYON   CLEAR     50  29  44 NW10      30.11R
CEDAR CITY     CLEAR     57  33  40 N10       30.02R
MILFORD        MOCLDY    59  31  34 N17       30.03R
ST GEORGE      PTCLDY    76  23  14 S9        29.85R
HANKSVILLE     CLEAR     64  32  29 NW8       29.94R
BLANDING       CLEAR     52  23  32 N6        30.04R

$$

REGIONAL REPORTS     COLORADO/ARIZONA

CITY           SKY/WX    TMP DP  RH WIND       PRES   REMARKS
CRAIG, CO      LGT RAIN  44  39  82 NW5       30.12R
GRAND JUNCTION MOCLDY    68  30  24 NW15      29.88R
RIFLE, CO      CLOUDY    60  37  42 W13       29.98R
MONTROSE, CO   CLOUDY    56  18  22 S16       29.94F
CORTEZ, CO     CLEAR     62  21  20 S17       29.99R
COLORADO CITY    N/A     63  21  20 SW6       30.00S
PAGE, AZ       CLEAR     72  19  13 SW7       29.90R
GRAND CANYON   CLEAR     49  24  37 CALM      30.12R
KINGMAN, AZ    CLEAR     66  24  20 SW5       29.93S
FLAGSTAFF, AZ  CLEAR     42  19  39 CALM      30.15R

$$

REGIONAL REPORTS    NEVADA/IDAHO/WYOMING

CITY           SKY/WX    TMP DP  RH WIND       PRES   REMARKS
LAS VEGAS, NV  CLEAR     80  17   9 SW10      29.78R
ELY, NY        MOCLDY    50  24  36 N14       30.11R
ELKO, NV       CLEAR     48  30  49 CALM      30.11R
POCATELLO, ID  MOCLDY    44  41  89 E3        30.12R
BURLEY, ID     CLEAR     43  41  93 SW5       30.09S
FORT BRIDGER,    N/A     37  28  70 W7        30.12R WCI  32
EVANSTON, WY   CLEAR     36  31  82 W8        30.09R WCI  30
ROCK SPRINGS,  CLOUDY    39  35  86 NE10      30.08S WCI  32
KEMMERER, WY     N/A     37  32  81 CALM      30.10R

$$




USA.gov is the U.S. government's official web portal to all federal, state and local government web resources and services.